Weather reports worldwide

Advertisment
Civitavecchia, Italy (16214): temperature & dewpoint: 11.06.2019 20:00:00 - 17.06.2019 20:00:00 (CEST)Civitavecchia, Italy (16214): wind speed: 11.06.2019 20:00:00 - 17.06.2019 20:00:00 (CEST)Civitavecchia, Italy (16214): wind direction: 11.06.2019 20:00:00 - 17.06.2019 20:00:00 (CEST)Civitavecchia, Italy (16214): reduced air pressure: 11.06.2019 20:00:00 - 17.06.2019 20:00:00 (CEST)Civitavecchia, Italy (16214): visibility: 11.06.2019 20:00:00 - 17.06.2019 20:00:00 (CEST)Civitavecchia, Italy (16214): sunshine duration: 11.06.2019 20:00:00 - 17.06.2019 20:00:00 (CEST)
Date & Time tt [°C] td [°C] ff [km/h] ff [kn] dd ppp [hPa] vv [km] sd [min]
17.06.2019 20:00:00 - - - - - - - -
17.06.2019 19:00:00 - - - - - - - -
17.06.2019 18:00:00 - - - - - - - -
17.06.2019 17:00:00 23,9 19,1 16 9 WNW 1013,7 - 60
17.06.2019 16:00:00 - - - - - - - -
17.06.2019 15:00:00 - - - - - - - -
17.06.2019 14:00:00 24,7 18,5 13 7 NW 1014,3 20 60
17.06.2019 13:00:00 - - - - - - - -
17.06.2019 12:00:00 - - - - - - - -
17.06.2019 11:00:00 22,1 19,0 8 4 WSW 1014,8 10 60
17.06.2019 10:00:00 - - - - - - - -
17.06.2019 09:00:00 - - - - - - - -
17.06.2019 08:00:00 20,8 17,0 8 4 S 1014,6 10 60
17.06.2019 07:00:00 - - - - - - - -
17.06.2019 06:00:00 - - - - - - - -
17.06.2019 05:00:00 19,6 14,2 8 4 ESE 1013,6 - 0
17.06.2019 04:00:00 - - - - - - - -
17.06.2019 03:00:00 - - - - - - - -
17.06.2019 02:00:00 20,3 17,7 4 2 N 1014,4 - 0
17.06.2019 01:00:00 - - - - - - - -
17.06.2019 00:00:00 - - - - - - - -
16.06.2019 23:00:00 21,5 18,9 28 15 NW 1014,2 - 0
16.06.2019 22:00:00 - - - - - - - -
16.06.2019 21:00:00 - - - - - - - -
16.06.2019 20:00:00 22,6 19,3 24 13 NW 1014,1 - 60
16.06.2019 19:00:00 - - - - - - - -
16.06.2019 18:00:00 - - - - - - - -
16.06.2019 17:00:00 24,5 19,0 21 11 NW 1014,7 - 60
16.06.2019 16:00:00 - - - - - - - -
16.06.2019 15:00:00 - - - - - - - -
16.06.2019 14:00:00 24,5 19,0 21 11 NW 1015,3 - 60
16.06.2019 13:00:00 - - - - - - - -
16.06.2019 12:00:00 - - - - - - - -
16.06.2019 11:00:00 23,3 18,6 18 10 NNW 1015,6 - 60
16.06.2019 10:00:00 - - - - - - - -
16.06.2019 09:00:00 - - - - - - - -
16.06.2019 08:00:00 21,1 16,8 18 10 NW 1015,1 - 59
16.06.2019 07:00:00 - - - - - - - -
16.06.2019 06:00:00 - - - - - - - -
16.06.2019 05:00:00 20,8 17,0 13 7 NW 1014,6 - 0
16.06.2019 04:00:00 - - - - - - - -
16.06.2019 03:00:00 - - - - - - - -
16.06.2019 02:00:00 21,4 16,6 21 11 NNW 1015,2 - 0
16.06.2019 01:00:00 - - - - - - - -
16.06.2019 00:00:00 - - - - - - - -
15.06.2019 23:00:00 22,6 19,3 29 16 NNW 1015,0 - 0
15.06.2019 22:00:00 - - - - - - - -
15.06.2019 21:00:00 - - - - - - - -
15.06.2019 20:00:00 24,4 19,1 28 15 NW 1014,3 - 54
15.06.2019 19:00:00 - - - - - - - -
15.06.2019 18:00:00 - - - - - - - -
15.06.2019 17:00:00 25,0 20,8 24 13 NW 1014,8 - 60
15.06.2019 16:00:00 - - - - - - - -
15.06.2019 15:00:00 - - - - - - - -
15.06.2019 14:00:00 25,3 19,7 11 6 NW 1015,5 - 60
15.06.2019 13:00:00 - - - - - - - -
15.06.2019 12:00:00 - - - - - - - -
15.06.2019 11:00:00 22,4 19,3 5 3 SW 1015,9 - 60
15.06.2019 10:00:00 - - - - - - - -
15.06.2019 09:00:00 - - - - - - - -
15.06.2019 08:00:00 22,2 19,0 8 4 S 1015,3 - 48
15.06.2019 07:00:00 - - - - - - - -
15.06.2019 06:00:00 - - - - - - - -
15.06.2019 05:00:00 23,2 19,7 9 5 S 1014,9 - 0
15.06.2019 04:00:00 - - - - - - - -
15.06.2019 03:00:00 - - - - - - - -
15.06.2019 02:00:00 23,5 19,0 8 4 E 1015,3 - 0
15.06.2019 01:00:00 - - - - - - - -
15.06.2019 00:00:00 - - - - - - - -
14.06.2019 23:00:00 27,4 13,9 13 7 ESE 1014,6 - 0
14.06.2019 22:00:00 - - - - - - - -
14.06.2019 21:00:00 - - - - - - - -
14.06.2019 20:00:00 25,4 18,3 9 5 SE 1017,2 10 0
14.06.2019 19:00:00 - - - - - - - -
14.06.2019 18:00:00 - - - - - - - -
14.06.2019 17:00:00 25,9 20,4 13 7 SE 1016,8 10 48
14.06.2019 16:00:00 - - - - - - - -
14.06.2019 15:00:00 - - - - - - - -
14.06.2019 14:00:00 26,8 20,6 13 7 ESE 1015,8 10 54
14.06.2019 13:00:00 - - - - - - - -
14.06.2019 12:00:00 - - - - - - - -
14.06.2019 11:00:00 26,6 19,2 15 8 SSE 1016,3 10 54
14.06.2019 10:00:00 - - - - - - - -
14.06.2019 09:00:00 - - - - - - - -
14.06.2019 08:00:00 23,6 18,4 9 5 SE 1016,4 10 60
14.06.2019 07:00:00 - - - - - - - -
14.06.2019 06:00:00 - - - - - - - -
14.06.2019 05:00:00 21,3 15,4 4 2 E 1015,3 - 0
14.06.2019 04:00:00 - - - - - - - -
14.06.2019 03:00:00 - - - - - - - -
14.06.2019 02:00:00 22,1 12,2 4 2 N 1016,3 - 0
14.06.2019 01:00:00 - - - - - - - -
14.06.2019 00:00:00 - - - - - - - -
13.06.2019 23:00:00 23,4 13,3 8 4 SE 1016,6 - 0
13.06.2019 22:00:00 - - - - - - - -
13.06.2019 21:00:00 - - - - - - - -
13.06.2019 20:00:00 23,7 17,0 21 11 NNW 1016,0 20 60
13.06.2019 19:00:00 - - - - - - - -
13.06.2019 18:00:00 - - - - - - - -
13.06.2019 17:00:00 25,0 17,9 16 9 NW 1015,9 20 60
13.06.2019 16:00:00 - - - - - - - -
13.06.2019 15:00:00 - - - - - - - -
13.06.2019 14:00:00 25,2 16,9 15 8 NW 1016,1 20 60
13.06.2019 13:00:00 - - - - - - - -
13.06.2019 12:00:00 - - - - - - - -
13.06.2019 11:00:00 23,7 16,8 9 5 WNW 1016,5 20 60
13.06.2019 10:00:00 - - - - - - - -
13.06.2019 09:00:00 - - - - - - - -
13.06.2019 08:00:00 22,0 18,1 5 3 SE 1015,2 10 60
13.06.2019 07:00:00 - - - - - - - -
13.06.2019 06:00:00 - - - - - - - -
13.06.2019 05:00:00 - - - - - - - -
13.06.2019 04:00:00 - - - - - - - -
13.06.2019 03:00:00 - - - - - - - -
13.06.2019 02:00:00 - - - - - - - -
13.06.2019 01:00:00 - - - - - - - -
13.06.2019 00:00:00 - - - - - - - -
12.06.2019 23:00:00 - - - - - - - -
12.06.2019 22:00:00 - - - - - - - -
12.06.2019 21:00:00 - - - - - - - -
12.06.2019 20:00:00 23,3 19,0 22 12 NW 1011,9 10 60
12.06.2019 19:00:00 - - - - - - - -
12.06.2019 18:00:00 - - - - - - - -
12.06.2019 17:00:00 23,5 19,0 9 5 WNW 1012,0 10 60
12.06.2019 16:00:00 - - - - - - - -
12.06.2019 15:00:00 - - - - - - - -
12.06.2019 14:00:00 22,8 19,4 13 7 W 1011,5 10 60
12.06.2019 13:00:00 - - - - - - - -
12.06.2019 12:00:00 - - - - - - - -
12.06.2019 11:00:00 24,0 18,9 16 9 NW 1011,0 10 60
12.06.2019 10:00:00 - - - - - - - -
12.06.2019 09:00:00 - - - - - - - -
12.06.2019 08:00:00 22,0 19,0 9 5 NNW 1010,0 10 48
12.06.2019 07:00:00 - - - - - - - -
12.06.2019 06:00:00 - - - - - - - -
12.06.2019 05:00:00 23,8 14,2 8 4 E 1009,2 - 0
12.06.2019 04:00:00 - - - - - - - -
12.06.2019 03:00:00 - - - - - - - -
12.06.2019 02:00:00 23,1 14,8 11 6 E 1009,7 - 0
12.06.2019 01:00:00 - - - - - - - -
12.06.2019 00:00:00 - - - - - - - -
11.06.2019 23:00:00 22,6 18,2 8 4 E 1010,4 - 0
11.06.2019 22:00:00 - - - - - - - -
11.06.2019 21:00:00 - - - - - - - -
11.06.2019 20:00:00 22,6 19,9 8 4 SW 1009,5 10 6

tt = temperature
td = dewpoint
ff = wind speed
dd = wind direction
ppp = reduced air pressure
vv = visibility
sd = sunshine duration

Next stations